Location: Aviernoz
(45.9783°N, 6.2284°E)
Time: 00:01:22
(UTC+00:00)

Daily predictions for brighter satellites

Satellite Brightness Start Highest point End
(mag) Time Altitude Azimuth Time Altitude Azimuth Time Altitude Azimuth
Resurs 1-4 Rocket 4.3 02:01:55 10° N 02:03:14 17° N 02:03:14 17° N
IDEFIX/ARIANE 42P 4.5 02:03:36 10° N 02:05:39 24° N 02:05:39 24° N
Cosmos 1833 Rocket 3.8 02:13:01 39° NNE 02:13:01 39° NNE 02:16:30 10° NNE
CZ-2D R/B 4.2 02:17:30 10° N 02:18:59 18° N 02:18:59 18° N
CENTAUR R/B 3.5 02:27:13 34° SE 02:27:55 35° ESE 02:33:57 10° NE
Lacrosse 4 Rocket 4.0 02:30:46 14° N 02:33:10 20° NE 02:36:29 10° E
Meteor 1-10 Rocket 4.5 02:39:08 64° NE 02:39:08 64° NE 02:44:00 10° NNE
Cosmos 2082 Rocket 2.6 02:38:49 56° ESE 02:38:49 56° ESE 02:44:09 10° NNE
Cosmos 1447 Rocket 4.5 02:32:48 10° N 02:38:47 79° NNE 02:38:47 79° NNE
ADEOS II 3.8 02:40:19 10° N 02:42:28 22° NNW 02:42:28 22° NNW
CZ-2C R/B 3.1 02:45:55 10° NNE 02:50:41 48° E 02:51:09 46° ESE
DELTA 2 R/B (1) 4.4 02:56:59 39° SSE 02:56:59 39° SSE 03:01:07 10° ESE
COSMOS 2406 3.1 03:01:52 75° NW 03:01:52 75° NW 03:07:22 10° NNE
NOSS 3-2 (A) 3.5 03:01:33 52° SSE 03:02:30 60° ESE 03:08:38 10° NE
BREEZE-M DEB (TANK) 3.8 03:04:00 32° ESE 03:04:00 32° ESE 03:07:06 10° ESE
Cosmos 1605 Rocket 4.4 03:06:06 45° NW 03:06:06 45° NW 03:11:01 10° N
ATLAS CENTAUR R/B 2.6 03:08:06 39° NNW 03:08:06 39° NNW 03:11:46 10° NNE
Cosmos 1933 Rocket 4.3 03:08:21 10° N 03:12:42 53° ENE 03:16:59 10° SSE
Cosmos 2322 Rocket 4.0 03:09:15 10° N 03:14:15 30° NE 03:19:11 10° ESE
X-37B 3.5 03:18:10 12° ESE 03:18:10 12° ESE 03:18:25 10° ESE
Meteor 1-11 Rocket 3.8 03:11:56 10° NNW 03:17:50 62° W 03:18:14 60° WSW
Cosmos 1980 Rocket 3.2 03:23:06 29° S 03:23:06 29° S 03:25:53 10° S
BREEZE M DEB (TANK) 4.3 03:16:14 31° SW 03:23:00 70° SSE 03:27:44 10° ENE
USA 308 4.1 03:25:29 30° NNW 03:25:30 30° NNW 03:29:11 10° NE
Cosmos 44 Rocket 3.5 03:26:24 50° NW 03:26:24 50° NW 03:30:47 10° NNE
Cosmos 1850 Rocket 4.0 03:20:57 10° NNW 03:26:20 83° ENE 03:31:40 10° SSE
PAYLOAD A 3.8 03:22:06 10° NNE 03:26:59 82° WNW 03:28:14 51° SSW
ATLAS 5 CENTAUR R/B 4.4 03:25:19 10° N 03:27:28 13° NNE 03:29:45 10° NE
SL-19 R/B 4.3 03:21:49 10° NNE 03:27:58 74° WNW 03:30:17 39° SSW
Cosmos 1802 Rocket 4.2 03:23:20 10° S 03:29:40 75° E 03:35:58 10° NNE
Meteor 2-9 Rocket 4.3 03:24:50 10° N 03:30:34 79° ENE 03:36:07 10° SSE
Cosmos 1378 3.6 03:30:13 48° SE 03:30:52 58° E 03:34:28 10° NNE
CBERS-1 4.1 03:28:34 10° N 03:33:33 52° WNW 03:33:56 51° W
Cosmos 2056 Rocket 4.5 03:35:20 29° NW 03:35:20 29° NW 03:39:18 10° N
Meteor 1-19 Rocket 4.1 03:32:43 15° S 03:37:13 81° E 03:42:40 10° NNE
Cosmos 2173 Rocket 3.8 03:33:19 23° SSW 03:37:19 76° W 03:43:25 10° N
Cosmos 1515 Rocket 3.5 03:37:57 60° SW 03:38:32 68° W 03:43:00 10° N
GP-B 3.6 03:35:13 10° SSE 03:39:34 59° E 03:43:56 10° N
Cosmos 1461 2.7 03:42:22 66° W 03:42:43 70° NW 03:46:55 10° NNE
ALOS 2.6 03:39:14 10° N 03:43:37 42° WNW 03:43:37 42° WNW
Cosmos 2278 3.6 03:39:02 10° NNW 03:44:39 67° WSW 03:50:14 10° SSE
SL-16 R/B 2.6 03:39:31 10° NNW 03:45:11 64° ENE 03:50:49 10° SE
USA 305 4.3 03:44:58 24° NNW 03:46:03 27° N 03:49:34 10° NE
FENGYUN 3A 4.2 03:45:53 10° N 03:50:46 36° WNW 03:51:35 34° W
METEOR-M 4.1 03:47:49 10° N 03:53:08 66° WNW 03:56:56 19° SSW
Cosmos 1833 Rocket 4.1 03:54:43 20° NW 03:55:28 20° NW 03:59:36 10° N
CZ-3 R/B 4.3 03:39:43 20° SW 03:55:39 36° S 04:04:21 10° SE
IRS-P3 4.0 03:50:29 10° N 03:55:49 74° WNW 04:00:46 12° SSW
Cosmos 1741 Rocket 4.0 03:52:52 10° NNW 03:58:00 57° WSW 04:03:04 10° S
Cosmos 192 4.4 03:54:32 13° SSW 03:58:56 83° ESE 04:03:55 10° NNE
Cosmos 2228 Rocket 3.6 03:57:37 10° S 04:02:01 62° E 04:06:25 10° NNE
Cosmos 1331 Rocket 3.9 04:00:12 16° SSW 04:04:17 77° WNW 04:09:29 10° NNE
Cosmos 2219 Rocket 4.4 04:00:55 10° N 04:05:28 24° NE 04:09:58 10° E
Spot 4 Rocket 4.4 04:00:50 10° NNE 04:05:58 68° ESE 04:11:04 10° S
YAOGAN 6 2.4 04:02:44 10° N 04:06:23 81° WNW 04:09:36 12° SSW
Cosmos 1484 Rocket 2.8 04:07:36 10° N 04:11:32 60° WNW 04:14:53 13° SSW
Lacrosse 5 rocket 3.8 04:08:10 10° S 04:11:42 22° SE 04:15:13 10° ENE
Lacrosse 4 Rocket 1.5 04:07:49 10° NW 04:12:09 60° WSW 04:16:30 10° SSE
ARIANE 5 R/B 2.6 04:08:34 10° N 04:13:26 52° WNW 04:18:02 11° SW
CZ-2C R/B 2.8 04:08:45 10° S 04:13:48 47° W 04:18:59 10° NNW
Helios 1B rocket 3.1 04:10:24 10° N 04:14:04 33° WNW 04:15:11 28° W
Meteor 1-29 2.7 04:13:48 10° NNE 04:17:07 86° WNW 04:20:24 10° SSW
CENTAUR R/B 2.8 04:14:25 22° WSW 04:18:16 52° NW 04:25:21 10° NE
CZ-2C R/B 3.3 04:13:44 10° NNE 04:19:28 85° ESE 04:24:55 10° SSW
Cosmos 1110 Rocket 4.1 04:16:35 16° SW 04:20:40 52° WNW 04:25:44 10° NNE
CZ-4C R/B 3.5 04:16:35 10° SSE 04:20:50 89° ENE 04:25:13 10° NNW
Cosmos 2016 Rocket 4.1 04:14:54 10° SSW 04:21:08 56° WNW 04:27:24 10° N
Cosmos 2333 Rocket 3.6 04:16:39 10° NNW 04:22:02 40° NE 04:27:20 10° SE
Cosmos 2082 Rocket 3.2 04:20:42 20° W 04:23:05 27° NW 04:27:51 10° N
Cosmos 1707 Rocket 4.1 04:18:59 10° S 04:23:15 60° E 04:27:32 10° NNE
COSMO-SKYMED 1 3.6 04:19:10 10° SSE 04:23:21 50° ENE 04:27:34 10° N
SL-08 R/B 4.4 04:17:42 10° SSW 04:23:43 61° WNW 04:29:50 10° N
Okean 1 4.2 04:23:13 23° WSW 04:24:33 28° WNW 04:28:04 10° NNW
Cosmos 1452 Rocket 4.3 04:24:11 19° WSW 04:27:10 33° WNW 04:31:57 10° N
USA 276 2.4 04:26:13 21° SW 04:27:59 58° SSE 04:30:58 10° ENE
Meteor 1-18 Rocket 4.2 04:22:41 10° SSW 04:28:19 65° WNW 04:33:55 10° N
Cosmos 1869 Rocket 3.7 04:24:15 10° NNW 04:28:32 50° W 04:32:45 10° SSW
CZ-2C R/B 3.6 04:24:44 10° N 04:28:34 23° WNW 04:30:30 18° W
Cosmos 2360 Rocket 2.6 04:23:33 10° NNW 04:29:11 67° ENE 04:34:46 10° SE
Envisat 3.0 04:24:53 10° N 04:29:54 62° WNW 04:34:54 10° SSW
USA 307 4.4 04:27:02 12° NW 04:30:04 26° N 04:33:36 10° ENE
Cosmos 968 Rocket 3.4 04:25:57 10° NNW 04:31:08 81° WSW 04:36:14 10° SSE
Meteor 2-10 4.5 04:27:20 10° N 04:32:28 63° ENE 04:37:27 10° SSE
COSMOS 2487 4.3 04:30:22 10° SSE 04:32:49 26° ESE 04:35:17 10° NE
MINOTAUR 4 R/B 4.1 04:31:45 10° SSE 04:35:14 81° ENE 04:38:46 10° NNW
USA 306 4.4 04:35:56 10° NW 04:39:28 27° N 04:43:00 10° ENE
H-2A R/B 2.6 04:37:16 10° N 04:40:52 58° WNW 04:44:29 10° SSW
Cosmos 2061 Rocket 4.2 04:35:38 10° SSW 04:41:33 46° WNW 04:47:31 10° N
SL-24 R/B - RUBIN 2 4.3 04:38:53 15° WSW 04:41:58 35° NW 04:46:00 10° NNE
PSLV R/B 3.5 04:41:48 10° N 04:46:07 70° WNW 04:50:20 10° SSW
ATLAS CENTAUR R/B 3.8 04:44:39 10° NW 04:47:00 13° NNW 04:49:19 10° N
Cosmos 1733 Rocket 3.1 04:43:08 10° N 04:47:35 90° NNW 04:51:59 10° S
Cosmos 1066 Rocket 4.5 04:42:57 10° S 04:48:40 78° E 04:54:17 10° NNE
X-37B 2.5 04:49:24 12° WSW 04:50:40 14° SSW 04:52:21 10° S
Meteor 2-4 Rocket 3.9 04:45:16 10° SSW 04:50:49 49° WNW 04:56:13 10° N
COSMOS 2428 4.4 04:48:05 10° NNW 04:53:18 35° NE 04:58:29 10° ESE
NOSS 3-2 (A) 4.3 04:48:58 12° W 04:53:45 34° NNW 04:59:44 10° NNE
NOSS 3-2 (C) 3.6 04:48:50 10° WSW 04:54:13 50° NW 05:00:33 10° NNE
Genesis I 4.2 04:50:21 10° SSW 04:54:14 51° ESE 04:58:11 10° NE
Cosmos 1975 3.8 04:53:37 10° NNW 04:56:55 25° W 05:00:11 10° SW
SL-08 R/B 4.3 04:53:59 10° SSW 04:57:48 24° W 05:01:40 10° NW
Cosmos 2322 Rocket 2.4 04:53:04 10° NW 04:58:33 51° WSW 05:03:58 10° S
Cosmos 1437 Rocket 4.0 04:55:44 10° N 04:59:25 45° ENE 05:03:10 10° SSE
Cosmos 2237 4.5 04:54:57 10° NW 05:00:21 46° WSW 05:05:44 10° S
Cosmos 1242 Rocket 3.2 04:57:51 10° NNW 05:00:51 29° W 05:03:49 10° SSW
CZ-2C R/B 3.0 04:57:20 10° N 05:01:00 46° WNW 05:04:43 10° SW
Cosmos 2233 Rocket 4.3 04:56:30 10° SSW 05:02:30 45° WNW 05:08:33 10° N
Cosmos 1992 Rocket 4.2 04:59:30 10° SSW 05:04:42 81° ESE 05:09:56 10° NNE
USA 308 4.3 05:02:07 10° NW 05:05:44 28° N 05:09:20 10° ENE
COSMOS 2455 2.9 05:02:11 10° NW 05:08:11 67° WSW 05:14:07 10° SSE
Cosmos 1805 3.4 05:06:18 10° NNW 05:10:04 48° W 05:13:47 10° SSW
USA 238 DEB 4.0 05:03:51 10° WSW 05:10:05 49° NW 05:16:47 10° NNE
USA 238 4.0 05:03:56 10° WSW 05:10:10 49° NW 05:16:52 10° NNE
